Regional Weather Roundup
Issued by NWS

Home | Current Version | Previous Version | Text Only | Print | Product List | Glossary Off
Versions: 1 2 3 4 5 6 7 8 9 10 11 12 13 14 15 16 17 18 19 20 21 22 23 24 25 26 27 28 29 30 31 32 33 34 35 36 37 38 39 40 41 42 43 44 45 46 47 48 49 50

000
ASUS43 KMPX 250601
RWRMN
WEATHER ROUNDUP FOR MINNESOTA
NATIONAL WEATHER SERVICE TWIN CITIES/CHANHASSEN MN
100 AM CDT THU AUG 25 2016


NOTE: "FAIR" INDICATES FEW OR NO CLOUDS BELOW 12,000 FEET WITH NO
SIGNIFICANT WEATHER AND/OR OBSTRUCTIONS TO VISIBILITY. N/A MEANS
CURRENT SKY AND/OR WEATHER CONDITIONS ARE NOT AVAILABLE.

MNZ060>063-068>070-250700-
   Twin Cities Metro

CITY           SKY/WX    TMP DP  RH WIND       PRES   REMARKS
TWIN CITIES    MOCLDY    66  59  78 W5        30.01S
6HR MIN TEMP:  66; 6HR MAX TEMP:  74;

ST PAUL        PTCLDY    65  59  81 W3        30.01R
CRYSTAL        CLEAR     65  56  72 W6        29.99S
BLAINE         PTCLDY    66  59  77 SW5       30.01R
LAKEVILLE      MOCLDY    63  59  88 CALM      30.02S
EDEN PRAIRIE   PTCLDY    63  59  87 SW5       30.01S
6HR MIN TEMP:  63; 6HR MAX TEMP:  74;

LAKEVILLE      MOCLDY    63  59  88 CALM      30.02S
SOUTH ST PAUL  PTCLDY    65  60  81 W6        30.00S
LAKE ELMO      FAIR      63  59  88 CALM      30.02R
$$
MNZ001>005-007-008-013>017-022>024-027-028-250700-
   Northwest Minnesota

CITY           SKY/WX    TMP DP  RH WIND       PRES   REMARKS
BEMIDJI        CLEAR     57  52  82 SW8       29.93S
HALLOCK        CLEAR     57  54  88 SW8       29.85R
ROSEAU         CLEAR     59  54  82 SW7       29.85S
WARROAD        CLEAR     55  52  88 S3        29.86S
THIEF RVR FALL CLEAR     59  52  77 W9        29.90S
CROOKSTON      CLEAR     61  52  72 W10       29.91S
FOSSTON        CLEAR     52  48  87 SW7       29.93F
DETROIT LAKES  CLEAR     61  52  72 W7        29.98S
MOORHEAD       CLEAR     57  52  82 W7        29.97S
PARK RAPIDS    CLEAR     55  51  86 S6        29.96S
MAHNOMEN       FAIR      54  51  88 SW7       29.94F
$$
MNZ006-009>011-018-025>026-250700-
   North Central Minnesota

CITY           SKY/WX    TMP DP  RH WIND       PRES   REMARKS
BAUDETTE       CLEAR     54  51  90 SW6       29.86S
FLAG ISLAND    CLEAR     63  54  72 SW5       29.82F HAZE
INTL FALLS     CLEAR     53  50  89 SW3       29.87F
6HR MIN TEMP:  50; 6HR MAX TEMP:  71;

WASKISH        CLEAR     66  55  68 W14G21    29.89S
BIG FORK       CLEAR     54  52  94 CALM      29.92S
LONGVILLE      CLEAR     59  55  88 W5        29.95R
GRAND RAPIDS   CLEAR     61  55  81 W5        29.96R
CRANE LAKE     PTCLDY    55  54  94 S3        29.91R
ORR            CLEAR     57  52  82 CALM      29.89R
COOK           CLEAR     57  54  88 SW3       29.92S
WALKER         FAIR      58  51  79 SW7       29.95S
$$
MNZ012-019>021-037-250700-
   Northeast Minnesota

CITY           SKY/WX    TMP DP  RH WIND       PRES   REMARKS
DULUTH         CLEAR     58  54  86 W8        29.94S
6HR MIN TEMP:  58; 6HR MAX TEMP:  74;

ELY            CLEAR     59  52  77 SW3       29.91S
HIBBING        CLEAR     50  50 100 CALM      29.93S
EVELETH        CLEAR     53  52  97 CALM      29.93F
DULUTH HARBOR  CLOUDY    64  59  82 SW7       29.93S
TWO HARBORS    PTCLDY    63  55  77 CALM      29.90F
SILVER BAY     MOCLDY    59  55  88 CALM      29.89S
G MARAIS ARPRT PTCLDY    61  50  67 W5        29.91R
$$
MNZ029>031-032-039>041-046>048-054>057-064-250700-
   West Central Minnesota

CITY           SKY/WX    TMP DP  RH WIND       PRES   REMARKS
FERGUS FALLS   CLEAR     55  54  94 SW3       30.01S
WHEATON        CLEAR     61  57  88 SW3       30.02F
MORRIS         CLEAR     59  55  88 SW6       30.01S
ALEXANDRIA     CLEAR     59  55  87 SW7       30.02R
ELBOW LAKE     FAIR      55  53  94 SW7       30.01S
WADENA         CLEAR     54  52  94 SW5       29.98R
GLENWOOD       CLEAR     57  55  94 SW6       30.03R
APPLETON       CLEAR     59  55  88 W6        30.02R
BENSON         CLEAR     57  54  88 W3        30.02R
ORTONVILLE     CLEAR     59  54  82 CALM      30.02S
MADISON        CLEAR     61  55  82 W6        30.02S
WILLMAR        FAIR      61  57  88 SW5       30.03S
$$
MNZ033>034-036-042>043-049>051-058-059-250700-
   Central Minnesota

CITY           SKY/WX    TMP DP  RH WIND       PRES   REMARKS
ST CLOUD       CLEAR     60  58  92 SW3       30.00S
6HR MIN TEMP:  59; 6HR MAX TEMP:  71;

SAUK CENTRE    FAIR      56  55  94 CALM      30.02R
PAYNESVILLE    CLEAR     57  57 100 CALM      30.02S
AITKIN         CLEAR     55  52  88 CALM      29.96R
PINE RIVER     CLEAR     54  54 100 CALM      30.00R
BRAINERD       CLEAR     59  55  87 SW6       29.97S
STAPLES        CLEAR     55  52  88 SW5       29.98S
LONG PRAIRIE   FAIR      55  54  94 S5        30.01S
LITTLE FALLS   CLEAR     54  52  94 SE3       30.00R
LITCHFIELD     CLEAR     63  59  88 SW3       30.03R
BUFFALO        CLEAR     62  58  87 CALM      30.02S
MAPLE LAKE     CLEAR     63  60  90 SW3       30.02S
HUTCHINSON     CLEAR     62  59  92 SW3       30.04S
$$
MNZ037-044-045-052-053-250700-
   East Central Minnesota

CITY           SKY/WX    TMP DP  RH WIND       PRES   REMARKS
PRINCETON      CLEAR     63  57  82 CALM      30.00R
MORA           CLEAR     59  54  82 SW5       30.01R
CAMBRIDGE      CLEAR     64  54  68 SW3       29.98S
RUSH CITY      PTCLDY    61  57  85 SW3       30.00R
MOOSE LAKE     CLEAR     55  54  94 SW3       29.95S
HINCKLEY       FAIR      59  57  94 CALM      29.98R
CLOQUET        CLEAR     61  54  77 SW7       29.95S
MCGREGOR       CLEAR     59  55  88 SW6       29.96R
$$
MNZ071>073-080-081-089-090-097-098-250700-
   Southwest Minnesota

CITY           SKY/WX    TMP DP  RH WIND       PRES   REMARKS
MONTEVIDEO     CLEAR     61  55  82 CALM      30.04R
GRANITE FALLS  CLEAR     60  57  92 S6        30.05R
CANBY          CLEAR     64  55  75 SW8       30.04S
MARSHALL       CLEAR     62  57  83 SW7       30.05R
REDWOOD FALLS  CLEAR     63  57  81 SW8       30.03S
OLIVIA         CLEAR     57  54  88 CALM      30.03R
PIPESTONE      CLEAR     57  55  94 SW1       30.08R
WINDOM         CLEAR     59  55  88 W5        30.07R
WORTHINGTON    CLEAR     58  56  93 SW5       30.09R
JACKSON        CLEAR     59  54  82 W3        30.08R
TRACY          CLEAR     61  57  87 SW7       30.06R
$$
MNZ065>067-074>077-082>085-091>093-250700-
   South Central Minnesota

CITY           SKY/WX    TMP DP  RH WIND       PRES   REMARKS
MANKATO        CLOUDY    63  57  82 W7        30.03F
NEW ULM          N/A     61  59  94 SW5       30.04S
ST JAMES       CLEAR     55  54  94 CALM      30.06S
FAIRMONT       CLEAR     63  58  83 NW7       30.06R
GLENCOE        CLEAR     62  61  94 CALM      30.02S
FARIBAULT      CLOUDY    63  61  94 W5        30.03F
OWATONNA       MOCLDY    63  61  94 NW3       30.03F
WASECA         PTCLDY    61  59  94 W3        30.05S
ALBERT LEA     PTCLDY    64  61  88 NW3       30.04S
$$
MNZ078>079-086>088-094>096-250700-
   Southeast Minnesota

CITY           SKY/WX    TMP DP  RH WIND       PRES   REMARKS
ROCHESTER      CLOUDY    63  60  90 NW6       30.03F
6HR MIN TEMP:  63; 6HR MAX TEMP:  72;

RED WING       CLOUDY    63  61  94 CALM      30.00S
STANTON        PTCLDY    64  59  82 CALM      30.01S
DODGE CENTER   CLOUDY    64  61  88 NW7       30.03F
WINONA         CLOUDY    68  61  77 W6        30.01R
AUSTIN         MOCLDY    64  59  82 NW6       30.03S
PRESTON        CLOUDY    64  58  83 NW7       30.03R
$$
ABBREVIATIONS USED IN REMARKS
   TC - TEMPERATURES IN CELSIUS
  WCI - WIND CHILL INDEX
   HX - HEAT INDEX
  VSB - VISIBILITY
$$




USA.gov is the U.S. government's official web portal to all federal, state and local government web resources and services.